TimeMST,TemperatureF,Dew PointF,Humidity,Sea Level PressureIn,VisibilityMPH,Wind Direction,Wind SpeedMPH,Gust SpeedMPH,PrecipitationIn,Events,Conditions,WindDirDegrees,DateUTC
12:30 AM,-9.4,-18.4,65,29.93,10.0,Calm,Calm,-,N/A,,Mostly Cloudy,0,2012-12-28 07:30:00
12:51 AM,-7.1,-16.1,65,30.13,10.0,Calm,Calm,-,N/A,,Overcast,0,2012-12-28 07:51:00
1:51 AM,-2.0,-11.9,63,30.11,10.0,Calm,Calm,-,N/A,,Overcast,0,2012-12-28 08:51:00
2:12 AM,-2.2,-13.0,60,29.93,10.0,Calm,Calm,-,N/A,,Scattered Clouds,0,2012-12-28 09:12:00
2:51 AM,-2.9,-13.0,62,30.11,10.0,Calm,Calm,-,N/A,,Clear,0,2012-12-28 09:51:00
3:51 AM,-4.0,-13.0,65,30.11,10.0,Calm,Calm,-,N/A,,Clear,0,2012-12-28 10:51:00
4:51 AM,-5.1,-14.1,65,30.12,10.0,Calm,Calm,-,N/A,,Mostly Cloudy,0,2012-12-28 11:51:00
6:51 AM,3.9,-4.0,70,30.11,10.0,ESE,3.5,-,N/A,,Overcast,110,2012-12-28 13:51:00
7:51 AM,6.1,-2.9,67,30.12,10.0,Calm,Calm,-,N/A,,Overcast,0,2012-12-28 14:51:00
8:51 AM,9.0,3.0,77,30.13,10.0,WSW,4.6,-,N/A,,Overcast,240,2012-12-28 15:51:00
9:51 AM,17.1,10.9,77,30.13,3.0,West,10.4,-,0.00,Snow,Light Snow,270,2012-12-28 16:51:00
10:01 AM,17.6,10.4,73,29.95,2.0,West,10.4,-,0.00,Snow,Light Snow,270,2012-12-28 17:01:00
10:27 AM,17.6,12.2,79,29.94,3.0,West,11.5,-,0.00,Snow,Light Snow,260,2012-12-28 17:27:00
10:44 AM,17.6,12.2,79,29.94,3.0,West,11.5,-,0.00,Snow,Light Snow,260,2012-12-28 17:44:00
10:51 AM,19.0,12.0,74,30.12,5.0,West,12.7,-,0.00,Snow,Light Snow,260,2012-12-28 17:51:00
11:41 AM,19.4,12.2,74,29.92,9.0,West,12.7,-,0.00,Snow,Light Snow,270,2012-12-28 18:41:00
11:51 AM,19.9,12.9,74,30.10,6.0,West,13.8,-,0.00,Snow,Light Snow,270,2012-12-28 18:51:00
12:51 PM,21.0,14.0,74,30.08,10.0,West,15.0,-,0.00,,Overcast,270,2012-12-28 19:51:00
1:51 PM,21.0,12.9,71,30.08,10.0,West,9.2,-,0.00,,Overcast,280,2012-12-28 20:51:00
2:51 PM,19.0,12.0,74,30.11,10.0,WNW,6.9,-,0.00,,Mostly Cloudy,290,2012-12-28 21:51:00
3:51 PM,12.9,7.0,77,30.13,10.0,WNW,6.9,-,N/A,,Clear,300,2012-12-28 22:51:00
4:51 PM,8.1,3.9,83,30.16,10.0,WNW,5.8,-,N/A,,Clear,290,2012-12-28 23:51:00
6:51 PM,7.0,1.0,77,30.14,10.0,WNW,5.8,-,N/A,,Clear,290,2012-12-29 01:51:00
8:51 PM,5.0,1.0,84,30.13,10.0,Calm,Calm,-,N/A,,Clear,0,2012-12-29 03:51:00
9:51 PM,10.9,5.0,77,30.10,10.0,West,9.2,-,N/A,,Clear,280,2012-12-29 04:51:00
10:51 PM,12.9,8.1,81,30.10,10.0,West,12.7,-,N/A,,Clear,260,2012-12-29 05:51:00